Holdrege, NE

4:16 AM CST on December 09, 2019 (GMT -0600)
Brewster

Weather History for KHDE - October, 2019

Change the Weather History Date:

Monday, October 21, 2019

  Actual Average Record
Temperature  
Mean Temperature 44 °F -  
Max Temperature 50 °F 63 °F 84 °F (2003)
Min Temperature 39 °F 37 °F 20 °F (1987)
Degree Days  
Heating Degree Days 20    
Moisture  
Dew Point 32 °F    
Average Humidity 59    
Maximum Humidity 72    
Minimum Humidity 37    
Precipitation  
Precipitation 0.00 in - - ()
Sea Level Pressure  
Sea Level Pressure 29.70 in    
Wind  
Wind Speed 21 mph ()    
Max Wind Speed 37 mph    
Max Gust Speed 51 mph    
Visibility 10.0 miles    
Events      
Averages and records for this station are not official NWS values.
T = Trace of Precipitation, MM = Missing Value Source: Averaged Metar Reports

Daily Weather History Graph

Daily Weather History Graph

Search for Another Location

Airport or City:

Astronomy

Oct. 21, 2019 Rise Set
Actual Time 7:54 AM CDT 6:48 PM CDT
Civil Twilight 7:26 AM CDT 7:16 PM CDT
Nautical Twilight 6:55 AM CDT 7:48 PM CDT
Astronomical Twilight 6:23 AM CDT 8:19 PM CDT
Moon 12:00 AM CDT (10/21) 3:14 PM CDT (10/21)
Length of Visible Light 11h 49m
Length of Day
10h 54m
Waning Gibbous, 48% of the Moon is Illuminated
Oct 21
Waning Gibbous
Oct 27
New
Nov 4
First Quarter
Nov 12
Full
Nov 19
Last Quarter

Hourly Weather History & Observations

Time (CDT) Temp. Windchill Dew Point Humidity Pressure Visibility Wind Dir Wind Speed Gust Speed Precip Events Conditions
12:15 AM 44.6 °F 38.1 °F 36.0 °F 72% 29.55 in 10.0 mi West 13.8 mph 23.0 mph N/A   Overcast
12:35 AM 44.4 °F 36.4 °F 34.7 °F 69% 29.55 in 10.0 mi WNW 19.6 mph 28.8 mph N/A   Overcast
12:55 AM 43.7 °F 35.2 °F 34.0 °F 69% 29.53 in 10.0 mi WNW 20.7 mph 27.6 mph N/A   Mostly Cloudy
1:15 AM 43.0 °F 35.7 °F 33.8 °F 70% 29.53 in 10.0 mi WNW 15.0 mph 21.9 mph N/A   Overcast
1:35 AM 43.3 °F 35.2 °F 34.2 °F 70% 29.54 in 10.0 mi WNW 18.4 mph 26.5 mph N/A   Overcast
1:55 AM 42.8 °F 33.3 °F 34.0 °F 71% 29.54 in 10.0 mi WNW 24.2 mph 34.5 mph N/A   Overcast
2:15 AM 42.1 °F 32.6 °F 33.6 °F 72% 29.54 in 10.0 mi WNW 23.0 mph 32.2 mph N/A   Mostly Cloudy
2:35 AM 41.4 °F 31.4 °F 32.9 °F 72% 29.55 in 10.0 mi WNW 24.2 mph 38.0 mph N/A   Mostly Cloudy
2:55 AM 42.8 °F 33.5 °F 33.8 °F 70% 29.56 in 10.0 mi WNW 23.0 mph 36.8 mph N/A   Overcast
3:15 AM 43.7 °F 33.7 °F 33.8 °F 68% 29.56 in 10.0 mi NW 28.8 mph 36.8 mph N/A   Overcast
3:35 AM 43.7 °F 33.3 °F 33.8 °F 68% 29.56 in 10.0 mi NW 31.1 mph 48.3 mph N/A   Overcast
3:55 AM 43.3 °F 34.5 °F 34.3 °F 71% 29.56 in 10.0 mi NW 21.9 mph 43.7 mph N/A   Overcast
4:15 AM 43.7 °F 35.2 °F 34.7 °F 71% 29.57 in 10.0 mi NW 20.7 mph 38.0 mph N/A   Overcast
4:35 AM 43.7 °F 34.5 °F 34.7 °F 71% 29.59 in 10.0 mi WNW 24.2 mph 32.2 mph N/A   Overcast
4:55 AM 43.9 °F 35.0 °F 34.7 °F 70% 29.59 in 10.0 mi WNW 23.0 mph 34.5 mph N/A   Overcast
5:35 AM 44.6 °F 35.5 °F 34.2 °F 67% 29.60 in 10.0 mi WNW 25.3 mph 34.5 mph N/A   Overcast
5:55 AM 45.5 °F 36.7 °F 33.8 °F 64% 29.60 in 10.0 mi WNW 25.3 mph 35.7 mph N/A   Overcast
6:15 AM 46.0 °F 37.0 °F 33.8 °F 62% 29.59 in 10.0 mi NW 27.6 mph 35.7 mph N/A   Overcast
6:35 AM 46.0 °F 37.2 °F 33.8 °F 62% 29.58 in 10.0 mi NW 26.5 mph 40.3 mph N/A   Overcast
6:55 AM 46.0 °F 38.5 °F 33.8 °F 62% 29.57 in 10.0 mi WNW 19.6 mph 39.1 mph N/A   Overcast
7:15 AM 45.9 °F 36.8 °F 34.2 °F 64% 29.57 in 10.0 mi WNW 27.6 mph 39.1 mph N/A   Overcast
7:35 AM 45.9 °F 37.0 °F 34.2 °F 64% 29.56 in 10.0 mi WNW 26.5 mph 40.3 mph N/A   Overcast
7:55 AM 45.7 °F 36.0 °F 34.2 °F 64% 29.56 in 10.0 mi WNW 31.1 mph 38.0 mph N/A   Overcast
8:15 AM 45.9 °F 36.4 °F 34.0 °F 63% 29.55 in 10.0 mi WNW 29.9 mph 46.0 mph N/A   Overcast
8:35 AM 46.0 °F 36.9 °F 34.0 °F 63% 29.55 in 10.0 mi WNW 28.8 mph 47.2 mph N/A   Overcast
8:55 AM 45.7 °F 35.9 °F 34.2 °F 64% 29.55 in 10.0 mi NW 32.2 mph 46.0 mph N/A   Overcast
9:15 AM 45.5 °F 35.0 °F 34.0 °F 64% 29.55 in 10.0 mi WNW 36.8 mph 50.6 mph N/A   Overcast
9:35 AM 45.0 °F 35.1 °F 34.0 °F 65% 29.57 in 10.0 mi NW 31.1 mph 44.9 mph N/A   Overcast
9:55 AM 44.6 °F 34.7 °F 34.0 °F 66% 29.60 in 10.0 mi NW 29.9 mph 42.6 mph N/A   Overcast
10:15 AM 45.0 °F 35.1 °F 33.8 °F 65% 29.61 in 10.0 mi NW 31.1 mph 41.4 mph N/A   Overcast
10:35 AM 45.3 °F 35.1 °F 34.0 °F 65% 29.62 in 10.0 mi NW 34.5 mph 42.6 mph N/A   Overcast
10:55 AM 45.0 °F 35.4 °F 33.8 °F 65% 29.63 in 10.0 mi NW 28.8 mph 41.4 mph N/A   Overcast
11:15 AM 45.5 °F 37.3 °F 33.6 °F 63% 29.64 in 10.0 mi NW 21.9 mph 40.3 mph N/A   Overcast
11:35 AM 45.7 °F 37.1 °F 33.6 °F 63% 29.65 in 10.0 mi NW 24.2 mph 43.7 mph N/A   Overcast
11:55 AM 46.6 °F - 33.6 °F 61% 29.66 in 10.0 mi NW 27.6 mph 42.6 mph N/A   Overcast
12:15 PM 46.4 °F 38.5 °F 33.6 °F 61% 29.67 in 10.0 mi NW 21.9 mph 38.0 mph N/A   Overcast
12:35 PM 46.8 °F - 33.4 °F 60% 29.67 in 10.0 mi WNW 29.9 mph 46.0 mph N/A   Overcast
12:55 PM 47.3 °F - 33.8 °F 59% 29.68 in 10.0 mi NW 20.7 mph 32.2 mph N/A   Overcast
1:15 PM 47.3 °F - 33.8 °F 59% 29.69 in 10.0 mi NW 25.3 mph 38.0 mph N/A   Overcast
1:35 PM 47.3 °F - 34.0 °F 60% 29.69 in 10.0 mi NW 24.2 mph 38.0 mph N/A   Overcast
1:55 PM 48.0 °F - 34.5 °F 60% 29.70 in 10.0 mi NW 26.5 mph 39.1 mph N/A   Overcast
2:15 PM 47.8 °F - 34.7 °F 60% 29.71 in 10.0 mi NW 21.9 mph 38.0 mph N/A   Overcast
2:35 PM 48.4 °F - 35.4 °F 61% 29.72 in 10.0 mi NW 32.2 mph 46.0 mph N/A   Overcast
2:55 PM 48.2 °F - 34.7 °F 60% 29.73 in 10.0 mi NW 31.1 mph 42.6 mph N/A   Overcast
3:15 PM 48.4 °F - 35.2 °F 60% 29.74 in 10.0 mi NW 28.8 mph 42.6 mph N/A   Overcast
3:35 PM 48.0 °F - 35.2 °F 61% 29.74 in 10.0 mi NW 24.2 mph 43.7 mph N/A   Overcast
3:55 PM 48.9 °F - 35.1 °F 59% 29.76 in 10.0 mi NW 29.9 mph 43.7 mph N/A   Overcast
4:15 PM 48.4 °F - 34.7 °F 59% 29.77 in 10.0 mi NW 21.9 mph 39.1 mph N/A   Overcast
4:35 PM 48.7 °F - 33.1 °F 55% 29.79 in 10.0 mi NNW 25.3 mph 36.8 mph N/A   Overcast
4:55 PM 50.2 °F - 32.0 °F 50% 29.79 in 10.0 mi NW 26.5 mph 36.8 mph N/A   Overcast
5:15 PM 50.9 °F - 29.7 °F 44% 29.81 in 10.0 mi NNW 20.7 mph 36.8 mph N/A   Overcast
5:35 PM 50.4 °F - 26.6 °F 40% 29.82 in 10.0 mi NNW 28.8 mph 39.1 mph N/A   Overcast
5:55 PM 49.8 °F - 24.8 °F 38% 29.83 in 10.0 mi NNW 21.9 mph 36.8 mph N/A   Mostly Cloudy
6:15 PM 48.9 °F - 23.4 °F 37% 29.84 in 10.0 mi NNW 23.0 mph 34.5 mph N/A   Scattered Clouds
6:35 PM 48.2 °F - 24.3 °F 39% 29.85 in 10.0 mi NNW 18.4 mph 31.1 mph N/A   Clear
6:55 PM 47.3 °F - 24.6 °F 41% 29.86 in 10.0 mi NW 12.7 mph 21.9 mph N/A   Scattered Clouds
7:15 PM 46.9 °F - 25.2 °F 43% 29.87 in 10.0 mi NW 10.4 mph 16.1 mph N/A   Scattered Clouds
7:35 PM 46.6 °F - 25.7 °F 44% 29.88 in 10.0 mi NW 10.4 mph - N/A   Clear
7:55 PM 44.6 °F 39.7 °F 25.7 °F 48% 29.90 in 10.0 mi NW 9.2 mph - N/A   Clear
8:15 PM 44.2 °F 38.4 °F 26.1 °F 49% 29.90 in 10.0 mi WNW 11.5 mph - N/A   Clear
8:35 PM 45.3 °F 38.4 °F 25.5 °F 46% 29.92 in 10.0 mi NW 16.1 mph 23.0 mph N/A   Clear
8:55 PM 45.5 °F 38.6 °F 25.0 °F 45% 29.92 in 10.0 mi NW 16.1 mph 23.0 mph N/A   Clear
9:15 PM 45.5 °F 38.1 °F 24.8 °F 44% 29.93 in 10.0 mi NW 18.4 mph 23.0 mph N/A   Clear
9:35 PM 44.6 °F 38.4 °F 24.8 °F 46% 29.92 in 10.0 mi WNW 12.7 mph 21.9 mph N/A   Clear
9:55 PM 43.7 °F 37.3 °F 25.2 °F 48% 29.93 in 10.0 mi WNW 12.7 mph 18.4 mph N/A   Clear
10:15 PM 43.2 °F 37.4 °F 25.3 °F 49% 29.93 in 10.0 mi WNW 10.4 mph - N/A   Clear
10:35 PM 42.3 °F 36.3 °F 25.7 °F 52% 29.95 in 10.0 mi WNW 10.4 mph - N/A   Clear
10:55 PM 41.4 °F 36.2 °F 26.1 °F 55% 29.95 in 10.0 mi West 8.1 mph - N/A   Clear
11:15 PM 39.6 °F 33.5 °F 25.5 °F 57% 29.97 in 10.0 mi West 9.2 mph - N/A   Clear
11:35 PM 39.0 °F 32.3 °F 26.1 °F 60% 29.97 in 10.0 mi West 10.4 mph - N/A   Clear
11:55 PM 39.0 °F 32.8 °F 26.2 °F 60% 29.97 in 10.0 mi West 9.2 mph - N/A   Clear